GFSFLT1_sfc_30mbdewp_162.txt.gz
Dewpoint
55 57 57 57 60 61 62 63 63 64 65 68 67 67 66 67 68 67 65 63 63 66 67 68 69 70 69 68 70 70 70 70 70
54 54 56 59 62 63 62 62 64 65 64 68 68 67 68 68 68 68 67 66 64 67 68 68 69 71 70 70 71 70 70 70 69
52 55 56 60 61 62 63 62 64 62 63 63 67 69 69 69 69 69 68 68 68 68 67 68 69 69 69 69 70 71 70 70 70
52 55 57 60 61 62 63 65 66 66 67 66 66 66 68 69 69 69 70 68 68 69 69 68 69 68 67 66 66 68 71 70 69
56 58 59 61 61 62 62 64 66 67 60 61 63 64 64 66 69 70 69 69 69 68 69 68 66 65 63 64 65 68 69 69 69
57 59 60 61 61 60 61 63 64 64 62 62 63 62 63 64 66 69 70 69 69 69 69 67 65 64 61 60 63 69 70 70 68
56 59 60 60 60 62 63 64 63 63 62 64 63 65 64 65 65 67 69 69 69 70 70 68 67 66 65 63 63 68 70 69 69
55 56 59 61 62 64 65 65 64 64 65 64 65 65 65 65 64 66 66 68 69 70 70 70 68 66 67 68 69 69 70 71 69
55 57 56 58 60 62 66 65 66 66 65 65 65 64 65 65 63 62 63 66 68 69 69 70 70 69 69 70 70 69 69 69 70
54 58 60 59 62 62 63 65 68 67 67 67 65 64 65 64 63 63 64 67 67 67 67 70 70 70 69 69 70 70 70 70 70
54 55 61 62 65 65 64 65 66 66 68 67 67 66 66 64 64 65 66 67 64 63 64 67 67 69 70 70 70 70 69 69 69
52 56 59 63 65 65 65 65 66 65 65 66 66 66 66 67 67 67 67 67 66 65 65 68 69 69 70 69 70 70 69 68 68
54 60 62 63 64 64 64 65 66 64 63 64 65 66 67 68 68 67 68 68 68 69 69 69 69 69 70 70 69 70 69 67 68
58 59 59 61 63 62 62 63 63 61 61 63 65 67 66 65 65 65 66 66 65 66 67 68 68 69 68 68 67 68 67 64 68
56 57 57 61 62 62 61 62 62 62 64 66 66 67 64 64 63 64 64 64 63 63 64 65 67 67 66 65 65 64 64 63 63
55 54 57 59 59 60 61 61 62 62 62 62 63 66 63 62 62 61 61 61 62 62 62 63 64 65 64 63 62 62 61 62 62
52 52 55 58 60 60 61 61 61 61 61 61 62 63 64 62 59 57 56 56 58 58 59 60 60 60 60 59 59 59 60 61 61
51 51 53 56 58 61 62 61 60 62 61 61 62 63 64 61 57 56 54 51 51 54 53 53 57 58 57 57 57 57 57 59 59
52 50 52 53 56 61 62 61 61 62 60 60 60 61 62 62 57 56 56 55 54 49 49 50 51 54 56 54 54 53 53 56 58
52 51 53 53 57 60 62 61 62 61 61 60 60 60 61 62 60 58 57 57 56 55 54 52 52 52 54 54 53 54 56 57 58

GFSFLT1_sfc_30mbdewp_165.txt.gz
Dewpoint
55 56 57 58 59 62 62 63 63 64 66 65 65 64 65 67 66 66 65 64 64 64 66 67 69 69 69 68 69 70 70 70 69
55 56 57 58 61 62 62 63 63 63 64 66 66 66 65 65 67 67 66 66 64 64 65 68 68 69 70 69 69 70 70 70 70
54 55 57 58 60 61 61 62 64 65 64 64 67 68 67 67 67 67 67 67 66 66 66 67 68 68 70 70 70 70 70 69 70
51 55 55 58 61 62 61 63 64 64 64 64 65 67 68 68 68 68 68 67 67 67 68 68 67 68 68 69 69 69 70 70 70
51 54 56 60 61 62 63 63 65 64 66 66 66 66 66 68 69 69 69 69 68 68 68 68 68 67 68 68 68 67 67 68 70
55 55 58 61 61 61 61 62 64 66 65 65 65 65 64 65 66 68 69 69 69 69 68 68 68 67 66 65 65 65 67 68 69
56 57 58 60 61 60 61 61 62 64 65 63 63 63 62 63 64 65 67 69 69 69 68 68 67 66 65 63 61 61 66 69 69
56 57 58 59 60 60 61 61 62 63 64 64 64 64 64 64 64 64 65 67 69 69 69 69 68 67 66 66 65 63 64 67 69
57 58 59 60 61 64 64 64 64 63 63 64 64 64 63 65 65 64 64 65 66 69 69 70 69 67 66 66 67 67 67 68 69
57 58 60 60 62 63 64 64 65 65 64 65 65 64 64 65 65 64 63 63 65 66 67 69 70 70 69 68 68 68 68 68 69
56 57 58 60 61 62 64 66 67 67 67 66 65 65 64 65 65 64 63 64 64 65 65 64 66 68 69 69 69 69 69 68 69
57 58 60 62 63 63 64 64 65 66 66 66 66 66 66 66 67 65 65 66 67 66 65 64 65 66 67 68 69 69 68 67 68
55 60 62 64 65 64 64 65 66 64 64 65 65 65 66 67 68 67 67 67 67 68 67 67 68 68 69 69 69 69 67 66 68
57 61 63 64 64 64 64 65 64 62 61 62 65 67 66 65 64 65 65 65 64 65 66 68 68 67 68 68 67 67 67 65 66
60 61 63 63 62 61 62 63 61 60 63 65 66 66 64 63 63 63 64 63 63 63 63 64 66 67 67 66 66 64 63 63 61
59 60 62 62 61 61 62 62 61 62 63 62 65 64 63 63 61 60 60 60 60 61 61 62 63 65 65 64 63 63 62 61 62
57 59 60 61 60 60 60 61 62 61 61 61 62 63 63 61 58 57 56 56 57 57 58 60 60 61 61 61 60 60 60 60 61
56 58 59 59 59 59 59 61 60 60 61 61 61 62 63 59 56 56 54 52 52 54 52 52 56 57 57 56 56 56 55 56 59
55 56 57 59 60 60 60 60 59 60 61 60 61 61 62 59 56 56 55 54 53 49 50 50 51 53 54 55 51 51 53 54 56
57 58 54 57 59 61 61 61 60 61 60 60 59 59 60 60 57 56 56 56 56 56 55 53 54 53 53 53 52 52 52 54 58

GFSFLT1_sfc_30mbdewp_168.txt.gz
Dewpoint
55 56 57 57 59 61 61 63 63 64 64 63 63 64 65 66 66 65 65 64 65 65 65 66 68 69 69 69 69 69 70 70 70
54 55 56 57 59 61 62 63 63 64 65 64 64 64 64 66 67 66 65 65 65 65 65 66 68 69 69 69 69 69 70 70 69
54 56 57 58 59 60 62 63 64 65 66 65 65 65 64 64 65 67 67 66 66 65 65 65 67 68 68 69 70 70 70 69 70
54 55 57 58 59 61 62 63 64 64 65 65 66 67 67 66 66 66 67 67 67 67 67 66 66 67 68 69 70 70 70 70 69
50 55 56 58 59 61 62 62 63 64 65 64 65 66 68 68 68 68 68 67 67 67 67 68 68 68 68 68 68 69 69 68 70
50 53 57 58 60 61 61 63 63 63 65 65 66 66 66 66 68 68 68 69 68 68 68 68 68 68 68 67 67 67 67 68 68
52 53 58 60 60 60 61 62 63 64 65 65 66 65 65 65 65 67 68 69 69 69 69 69 68 68 67 67 66 66 66 67 67
55 55 58 59 60 60 60 61 62 63 65 64 63 63 63 63 63 64 65 65 68 70 69 69 68 68 67 67 65 64 63 64 65
55 55 57 59 59 60 60 61 61 62 63 63 64 64 63 64 64 64 64 64 65 66 69 69 69 68 68 67 67 66 65 64 64
55 56 58 59 60 62 63 63 64 64 63 64 64 63 63 64 65 64 64 64 63 64 65 69 70 69 68 67 67 66 66 66 67
57 57 58 60 61 63 63 64 66 66 65 65 65 64 64 65 65 65 65 64 63 64 65 66 67 69 70 70 70 69 68 67 68
56 58 59 60 62 63 64 65 66 66 66 66 66 65 65 66 66 66 65 65 65 66 66 65 65 65 65 66 67 68 68 67 68
56 58 59 61 62 63 63 64 65 65 64 64 65 65 66 67 67 67 67 67 67 68 67 66 66 66 67 67 68 69 67 67 67
57 59 61 63 63 63 63 64 64 63 63 63 65 67 66 65 64 64 64 64 64 64 65 67 68 68 68 68 69 68 66 66 66
58 60 63 64 63 62 63 65 64 61 61 64 65 66 64 63 62 62 62 62 62 62 62 63 64 67 67 67 66 64 63 63 62
59 62 63 63 62 62 63 63 61 60 63 64 65 65 63 63 61 59 58 59 59 60 61 61 63 64 65 64 63 62 61 61 61
60 62 63 62 61 60 61 61 61 61 62 62 63 63 62 61 58 57 57 56 56 57 57 59 60 60 60 60 60 59 58 58 60
60 62 62 61 60 60 60 61 61 60 61 61 61 62 61 59 57 56 54 52 52 54 53 52 56 56 56 56 56 55 51 53 56
59 58 60 60 59 59 59 60 60 59 60 60 60 61 60 57 56 56 56 55 54 50 50 50 51 52 55 54 50 51 53 54 55
58 59 59 54 59 60 60 60 58 60 60 59 59 59 61 58 57 56 56 56 56 56 54 51 53 52 52 52 52 53 54 55 57

GFSFLT1_sfc_30mbdewp_171.txt.gz
Dewpoint
53 54 56 56 58 59 60 61 62 63 64 65 65 66 66 67 68 66 66 66 65 66 66 66 69 69 70 71 71 71 72 70 71
53 54 55 57 59 60 61 61 63 63 64 65 65 65 66 67 68 67 66 67 67 66 68 68 70 70 70 71 71 71 72 70 71
53 55 56 57 58 60 61 61 63 64 65 65 65 65 65 65 66 68 67 68 68 67 68 68 69 69 70 70 71 71 71 71 70
53 55 56 57 58 60 62 63 63 64 65 66 66 66 65 65 65 66 68 67 68 68 68 69 69 69 68 70 70 71 71 71 71
53 56 57 58 59 61 62 63 63 65 66 66 66 67 67 67 67 67 66 67 67 68 69 69 69 69 69 69 70 70 71 70 68
52 54 57 59 60 61 63 63 64 65 66 66 66 67 67 68 68 68 68 69 69 69 69 69 68 69 70 69 69 69 70 70 70
52 54 57 58 61 62 63 64 64 65 66 67 67 67 66 66 67 68 68 68 69 70 70 70 69 69 69 69 69 69 69 69 70
53 54 57 59 60 62 63 64 65 65 66 67 67 67 67 67 67 68 68 69 69 70 70 70 70 70 70 70 69 67 68 68 68
53 55 57 59 61 62 62 63 64 64 65 67 67 66 66 66 65 66 66 66 66 67 69 70 70 70 70 69 68 66 66 67 67
54 57 59 60 61 61 62 63 64 64 65 66 66 66 65 66 66 66 66 66 67 67 67 68 70 70 70 70 70 68 66 66 67
55 58 59 60 61 62 65 65 65 66 66 66 65 65 65 65 66 66 66 66 66 66 66 66 67 69 70 71 70 69 67 66 68
56 58 59 61 62 64 65 65 67 67 67 67 67 67 67 67 67 67 67 67 67 67 66 66 66 67 69 70 70 69 68 68 69
57 58 59 61 63 64 65 66 66 65 65 66 66 67 68 68 68 67 66 67 67 67 68 67 68 68 68 68 68 68 66 67 68
54 58 60 62 63 63 64 65 65 64 65 65 67 68 68 68 67 66 66 66 66 66 66 67 67 68 69 69 70 69 66 65 69
52 57 60 63 63 63 64 65 65 64 64 66 68 68 67 66 65 63 64 64 63 63 64 64 66 67 67 68 67 64 62 61 61
56 57 61 62 62 64 65 66 65 64 65 66 67 66 66 65 63 62 62 62 61 61 62 62 62 63 64 64 63 62 61 60 60
57 59 62 62 63 63 64 65 65 63 65 65 65 64 64 63 61 60 60 58 58 58 58 60 61 61 61 61 61 59 58 59 60
60 63 63 64 63 62 63 64 63 63 63 63 62 63 63 61 59 59 58 56 55 56 54 54 58 57 57 57 57 55 51 53 57
63 63 64 64 63 62 62 62 61 62 62 62 61 63 62 60 59 58 58 57 56 51 51 51 52 52 57 54 52 51 53 54 55
62 62 62 62 61 61 61 61 60 62 62 62 62 62 62 60 59 59 58 58 58 57 54 51 52 53 54 55 55 55 55 55 58